Location: Demmingen
(48.6757°N, 10.4375°E)
Time: 08:28:27
(UTC+00:00)

Cosmos 1408 - Pass Details

Date: 23 May 2024
Orbit: 363 x 377 km, 82.6° (Epoch: 15 June)

Event Time Altitude Azimuth Distance (km) Brightness Sun altitude
Exits shadow 01:23:15 24° 158° (SSE) 804 3.3 -15.0°
Maximum altitude 01:24:40 47° 95° (E) 498 2.8 -14.9°
Drops below altitude 10° 01:27:31 10° 21° (NNE) 1,365 6.2 -14.6°
Sets 01:29:31 0° 15° (NNE) 2,220 7.4 -14.5°
